Regional Weather Roundup
Issued by NWS

Home | Current Version | Previous Version | Text Only | Print | Product List | Glossary Off
Versions: 1 2 3 4 5 6 7 8 9 10 11 12 13 14 15 16 17 18 19 20 21 22 23 24 25 26 27 28 29 30 31 32 33 34 35 36 37 38 39 40 41 42 43 44 45 46 47 48 49 50

000
ASUS45 KPSR 031910
RWRAZ

ARIZONA HOURLY REGIONAL WEATHER ROUNDUP
NATIONAL WEATHER SERVICE PHOENIX AZ
1200 PM MST MON AUG 03 2015

NOTE: FAIR INDICATES FEW OR NO CLOUDS BELOW 12,000 FEET WITH NO
SIGNIFICANT WEATHER AND/OR OBSTRUCTIONS TO VISIBILITY.

AZZ001>003-036-032000-
NORTHWEST ARIZONA

CITY           SKY/WX    TMP DP  RH WIND       PRES   REMARKS
BULLHEAD CITY  SUNNY    104  45  13 SW13      29.79F HX 100
KINGMAN        MOSUNNY   97  44  16 SW16G37   30.01F
$$

AZZ004>008-015-016-018-032000-
NORTH CENTRAL ARIZONA

CITY           SKY/WX    TMP DP  RH WIND       PRES   REMARKS
GRAND CANYON   MOSUNNY   82  40  22 W8G18     30.27S
WILLIAMS       MOSUNNY   79  39  24 SW12G20   30.35S
PRESCOTT       PTSUNNY   89  42  19 S10G17    30.16
FLAGSTAFF      MOSUNNY   78  43  28 SW12G20   30.32R
PAYSON         SUNNY     88  43  20 W8G17     30.19S
PAGE           SUNNY     83  58  42 NE8       30.08
$$

AZZ009>014-017-032000-
NORTHEAST ARIZONA

CITY           SKY/WX    TMP DP  RH WIND       PRES   REMARKS
WINSLOW        SUNNY     90  44  20 NE6       30.14F
SAINT JOHNS    SUNNY     84  49  29 MISG      30.21S
SHOW LOW       MOSUNNY   79  41  25 S6        30.27F
$$

AZZ023-032000-
GREATER PHOENIX AREA

CITY           SKY/WX    TMP DP  RH WIND       PRES   REMARKS
PHOENIX        MOSUNNY  103  49  16 VRB3      29.85S
BUCKEYE        SUNNY    102  43  13 SE6       29.85F
GLENDALE       MOSUNNY  104  46  14 W6G17     29.86F HX 100
LUKE AFB       SUNNY    103  49  16 VRB6      29.84F
DEER VALLEY    SUNNY     99  49  18 S5        29.87F
SCOTTSDALE     SUNNY    102  50  17 CALM      29.89
MESA-FALCON    MOSUNNY  104  52  17 W6        29.87F HX 101
MESA-GATEWAY   MOSUNNY  100  54  20 CALM      29.89F
CHANDLER       SUNNY    102  52  18 W7        29.87  HX 100
$$

AZZ027-028-032000-
SOUTHWEST MARICOPA COUNTY AND PINAL COUNTY

CITY           SKY/WX    TMP DP  RH WIND       PRES   REMARKS
CASA GRANDE    SUNNY    100  50  18 CALM      29.88S
GILA BEND      SUNNY    105  43  12 VRB1      29.83F HX 100
$$

AZZ503-504-507>509-032000-
SOUTHEAST ARIZONA

CITY           SKY/WX    TMP DP  RH WIND       PRES   REMARKS
TUCSON         SUNNY     97  53  22 VRB3      29.99
DAVIS-MONTHAN  SUNNY     95  54  24 N6        29.97F
NOGALES        SUNNY     91  57  31 MISG      30.08F
SIERRA VISTA   SUNNY     87  51  28 NE5       30.16R
DOUGLAS          N/A    N/A N/A N/A MISG      30.08F
SAFFORD        SUNNY     96  51  21 W7        29.99F
$$

AZZ020-021-025-026-031-032000-
SOUTHWEST ARIZONA

CITY           SKY/WX    TMP DP  RH WIND       PRES   REMARKS
YUMA           MOSUNNY  104  60  23 S12       29.78F HX 105
$$

CAZ031-033-041-043-047-048-061-032000-
SOUTHERN CALIFORNIA

CITY           SKY/WX    TMP DP  RH WIND       PRES   REMARKS
DOWNTOWN L.A.  MOSUNNY   83  65  54 MISG      29.89F
L.A. AIRPORT   PTSUNNY   75  65  70 SW12      29.92
SAN DIEGO      MOSUNNY   76  61  59 VRB5      29.93S
BURBANK        MOSUNNY   84  63  49 SE6       29.91S
ONTARIO        PTSUNNY   86  59  39 SW8       29.91
RIVERSIDE      MOSUNNY   86  61  42 W6        29.90
PALM SPRINGS   SUNNY    103  55  20 SE9G16    29.80  HX 101
EL CENTRO NAS  MOSUNNY  103  51  17 VRB3      29.77F HX 100
IMPERIAL       SUNNY    103  55  20 NE7       29.75  HX 101
BLYTHE         SUNNY    105  44  12 S13       29.78  HX 100
NEEDLES        SUNNY    108  40  10 SW12G22   29.80F HX 102
$$

NVZ020-UTZ003-032000-
SOUTHERN NEVADA-UTAH

CITY           SKY/WX    TMP DP  RH WIND       PRES   REMARKS
LAS VEGAS      MOSUNNY  102  37  10 SE8G17    29.84F
SALT LAKE CITY LGT RAIN  64  59  83 W6        30.14R
$$

NMZ009-TXZ055-032000-
NEW MEXICO-WEST TEXAS

CITY           SKY/WX    TMP DP  RH WIND       PRES   REMARKS
ALBUQUERQUE    MOSUNNY   82  54  37 N12       30.18
EL PASO        MOSUNNY   89  59  36 VRB3      30.05F
$$


........................KEY........................
SKY/WX - SKY CONDITION/WEATHER
TMP    - TEMPERATURE IN FAHRENHEIT
DP     - DEW POINT IN FAHRENHEIT
RH     - RELATIVE HUMIDITY IN PERCENT
WIND   - DIRECTION AND SPEED IN MILES PER HOUR (MPH)
VRB    - VARIABLE WIND DIRECTION
PRES   - MEAN SEA LEVEL PRESSURE IN INCHES OF MERCURY
         F - FALLING PRESSURE   R - RISING PRESSURE
         S - STEADY PRESSURE
VSB    - VISIBILITY IN MILES
HX     - HEAT INDEX IN FAHRENHEIT
WCI    - WIND CHILL INDEX IN FAHRENHEIT
TC     - TEMPERATURE IN CELSIUS WHICH IS ALSO KNOWN AS
         TEMPERATURE IN CENTIGRADE
AFB    - AIR FORCE BASE
         LUKE AFB IS LUKE AIR FORCE BASE
         DAVIS-MONTHAN IS DAVIS-MONTHAN AIR FORCE BASE
NAS    - NAVAL AIR STATION
         EL CENTRO NAS IS EL CENTRO NAVAL AIR STATION
N/A    - NOT AVAILABLE




USA.gov is the U.S. government's official web portal to all federal, state and local government web resources and services.